Weather History for HESN - October, 2012

Change the Weather History Date:

Wednesday, October 3, 2012

  Actual Average Record
Temperature  
Mean Temperature 94 °F -  
Max Temperature 105 °F 92 °F 111 °F (2010)
Min Temperature 83 °F 70 °F 69 °F (2000)
Cooling Degree Days 29    
Growing Degree Days 44 (Base 50)    
Moisture  
Dew Point 51 °F    
Average Humidity 22    
Maximum Humidity 29    
Minimum Humidity 11    
Precipitation  
Precipitation 0.00 in 0.00 in - ()
Sea Level Pressure  
Sea Level Pressure 29.90 in    
Wind  
Wind Speed 8 mph ()    
Max Wind Speed 14 mph    
Max Gust Speed -    
Visibility 5.8 miles    
Events      
Averages and records for this station are not official NWS values.
T = Trace of Precipitation, MM = Missing Value Source: Averaged Metar Reports

Daily Weather History Graph

Daily Weather History Graph

Search for Another Location

Airport or City:

Trip Planner

Search our weather history database for the weather conditions in past years. The results will help you decide how hot, cold, wet, or windy it might be!

Date:

Astronomy

Oct. 03, 2012 Rise Set
Actual Time 5:41 AM EET 5:33 PM EET
Civil Twilight 5:18 AM EET 5:56 PM EET
Nautical Twilight 4:52 AM EET 6:22 PM EET
Astronomical Twilight 4:26 AM EET 6:48 PM EET
Moon 7:37 PM EET (10/3) 8:21 AM EET (10/3)
Length of Visible Light 12h 37m
Length of Day
11h 52m
Waning Gibbous, 90% of the Moon is Illuminated
Oct 3
Waning Gibbous
Oct 8
Last Quarter
Oct 15
New
Oct 22
First Quarter
Oct 29
Full

Hourly Weather History & Observations

Time (EET) Temp. Heat Index Dew Point Humidity Pressure Visibility Wind Dir Wind Speed Gust Speed Precip Events Conditions
12:00 AM 91.4 °F 89.1 °F 53.6 °F 28% 29.92 in - NNE 12.7 mph - N/A   Clear
1:00 AM 91.4 °F - 51.8 °F 26% 29.92 in - North 11.5 mph - N/A   Clear
2:00 AM 90 °F - 51 °F 17% 29.88 in 6 mi North 8.1 mph - -   Partly Cloudy
2:00 AM 89.6 °F - 50.0 °F 26% 29.92 in - North 8.1 mph - N/A   Clear
3:00 AM 87.8 °F - 50.0 °F 27% 29.89 in - North 6.9 mph - N/A   Clear
4:00 AM 86.0 °F - 50.0 °F 29% 30.04 in - North 6.9 mph - N/A   Clear
5:00 AM 84.2 °F - 48.2 °F 29% 29.92 in - North 8.1 mph - N/A   Clear
6:00 AM 84.2 °F - 48.2 °F 29% 29.92 in - North 9.2 mph - N/A   Clear
7:00 AM 86.0 °F - 48.2 °F 27% 29.92 in - WSW 10.4 mph - N/A   Clear
8:00 AM 89 °F - 49 °F 16% 29.93 in 6 mi North 5.8 mph - -   Partly Cloudy
8:00 AM 89.6 °F - 50.0 °F 26% 29.95 in - North 5.8 mph - N/A   Clear
9:00 AM 91.4 °F - 51.8 °F 26% 29.95 in - North 9.2 mph - N/A   Clear
10:00 AM 96.8 °F 94.4 °F 53.6 °F 23% 29.95 in - NNE 13.8 mph - N/A   Clear
11:00 AM 98.6 °F 96.4 °F 53.6 °F 22% 29.92 in - NNE 11.5 mph - N/A   Clear
12:00 PM 102.2 °F 100.4 °F 53.6 °F 20% 29.92 in - North 6.9 mph - N/A   Clear
1:00 PM 102.2 °F 100.4 °F 53.6 °F 20% 29.92 in - North 9.2 mph - N/A   Clear
2:00 PM 103 °F - 53 °F 11% 29.81 in 6 mi North 9.2 mph - -   Partly Cloudy
2:00 PM 104.0 °F 102.3 °F 53.6 °F 19% 29.86 in 5.0 mi North 9.2 mph - N/A   Unknown
3:00 PM 104.0 °F - 51.8 °F 17% 29.83 in - North 11.5 mph - N/A   Clear
4:00 PM 104.0 °F - 51.8 °F 17% 29.83 in - North 8.1 mph - N/A   Clear
5:00 PM 102.2 °F - 50.0 °F 17% 29.83 in - North 6.9 mph - N/A   Clear
6:00 PM 100.4 °F - 50.0 °F 18% 29.83 in - North 9.2 mph - N/A   Clear
7:00 PM 98.6 °F - 50.0 °F 19% 29.86 in - NNW 9.2 mph - N/A   Clear
8:00 PM 96 °F - 49 °F 12% 29.84 in 6 mi North 9.2 mph - -  
8:00 PM 95.0 °F - 50.0 °F 22% 29.86 in - North 9.2 mph - N/A   Clear
9:00 PM 93.2 °F - 50.0 °F 23% 29.89 in - North 10.4 mph - N/A   Clear
10:00 PM 93.2 °F - 46.4 °F 20% 29.89 in - North 11.5 mph - N/A   Clear
11:00 PM 89.6 °F - 42.8 °F 20% 29.89 in - North 8.1 mph - N/A   Clear